Time,TemperatureF,DewpointF,PressureIn,WindDirection,WindDirectionDegrees,WindSpeedMPH,WindSpeedGustMPH,Humidity,HourlyPrecipIn,Conditions,Clouds,dailyrainin,SoftwareType,DateUTC
2013-03-20 00:02:00,1.0,-3.0,30.35,WNW,296,4.0,9.0,84,0.00,,,0.00,,2013-03-20 05:02:00,
2013-03-20 00:12:00,1.0,-3.0,30.35,WNW,303,3.0,6.0,81,0.00,,,0.00,,2013-03-20 05:12:00,
2013-03-20 00:22:00,1.0,-3.0,30.35,WNW,303,3.0,6.0,81,0.00,,,0.00,,2013-03-20 05:22:00,
2013-03-20 00:32:00,1.0,-3.0,30.35,NW,314,2.0,7.0,81,0.00,,,0.00,,2013-03-20 05:32:00,
2013-03-20 00:42:00,1.0,-3.0,30.35,NW,314,2.0,7.0,81,0.00,,,0.00,,2013-03-20 05:42:00,
2013-03-20 00:52:00,1.0,-3.0,30.35,WNW,300,4.0,8.0,83,0.00,,,0.00,,2013-03-20 05:52:00,
2013-03-20 01:02:00,1.0,-3.0,30.35,WSW,250,4.0,8.0,81,0.00,,,0.00,,2013-03-20 06:02:00,
2013-03-20 01:12:00,1.0,-3.0,30.35,WSW,250,4.0,8.0,81,0.00,,,0.00,,2013-03-20 06:12:00,
2013-03-20 01:22:00,1.0,-3.0,30.35,NW,308,6.0,9.0,82,0.00,,,0.00,,2013-03-20 06:22:00,
2013-03-20 01:32:00,1.0,-3.0,30.35,NW,311,5.0,9.0,81,0.00,,,0.00,,2013-03-20 06:32:00,
2013-03-20 01:42:00,1.0,-3.0,30.35,NW,311,5.0,9.0,81,0.00,,,0.00,,2013-03-20 06:42:00,
2013-03-20 01:52:00,1.0,-4.0,30.35,NW,305,3.0,9.0,80,0.00,,,0.00,,2013-03-20 06:52:00,
2013-03-20 02:02:00,0.0,-4.0,30.35,NNW,329,4.0,9.0,82,0.00,,,0.00,,2013-03-20 07:02:00,
2013-03-20 02:12:00,0.0,-4.0,30.35,NNW,329,4.0,9.0,82,0.00,,,0.00,,2013-03-20 07:12:00,
2013-03-20 02:22:00,0.0,-5.0,30.35,WNW,296,4.0,7.0,80,0.00,,,0.00,,2013-03-20 07:22:00,
2013-03-20 02:32:00,0.0,-4.0,30.35,WNW,294,5.0,10.0,81,0.00,,,0.00,,2013-03-20 07:32:00,
2013-03-20 02:42:00,0.0,-4.0,30.35,WNW,294,5.0,10.0,81,0.00,,,0.00,,2013-03-20 07:42:00,
2013-03-20 02:52:00,0.0,-4.0,30.35,NW,305,4.0,8.0,81,0.00,,,0.00,,2013-03-20 07:52:00,
2013-03-20 03:02:00,0.0,-5.0,30.35,NNW,330,5.0,10.0,80,0.00,,,0.00,,2013-03-20 08:02:00,
2013-03-20 03:12:00,0.0,-5.0,30.35,NNW,330,5.0,10.0,80,0.00,,,0.00,,2013-03-20 08:12:00,
2013-03-20 03:22:00,0.0,-5.0,30.36,WNW,301,6.0,10.0,80,0.00,,,0.00,,2013-03-20 08:22:00,
2013-03-20 03:32:00,0.0,-5.0,30.36,WNW,293,3.0,7.0,80,0.00,,,0.00,,2013-03-20 08:32:00,
2013-03-20 03:42:00,0.0,-5.0,30.36,WNW,293,3.0,7.0,80,0.00,,,0.00,,2013-03-20 08:42:00,
2013-03-20 03:52:00,0.0,-5.0,30.36,NW,319,4.0,9.0,80,0.00,,,0.00,,2013-03-20 08:52:00,
2013-03-20 04:02:00,-1.0,-6.0,30.36,NW,308,3.0,7.0,80,0.00,,,0.00,,2013-03-20 09:02:00,
2013-03-20 04:12:00,-1.0,-6.0,30.36,NW,308,3.0,7.0,80,0.00,,,0.00,,2013-03-20 09:12:00,
2013-03-20 04:22:00,0.0,-5.0,30.36,NW,316,6.0,10.0,80,0.00,,,0.00,,2013-03-20 09:22:00,
2013-03-20 04:33:00,-1.0,-6.0,30.36,WNW,301,4.0,8.0,80,0.00,,,0.00,,2013-03-20 09:33:00,
2013-03-20 04:43:00,-1.0,-6.0,30.36,WNW,301,4.0,8.0,80,0.00,,,0.00,,2013-03-20 09:43:00,
2013-03-20 04:52:00,-2.0,-7.0,30.36,WNW,296,3.0,6.0,80,0.00,,,0.00,,2013-03-20 09:52:00,
2013-03-20 05:03:00,-2.0,-7.0,30.36,NW,308,4.0,7.0,80,0.00,,,0.00,,2013-03-20 10:03:00,
2013-03-20 05:12:00,-2.0,-7.0,30.36,NW,308,4.0,7.0,80,0.00,,,0.00,,2013-03-20 10:12:00,
2013-03-20 05:23:00,-3.0,-7.0,30.36,WNW,290,2.0,5.0,81,0.00,,,0.00,,2013-03-20 10:23:00,
2013-03-20 05:32:00,-3.0,-7.0,30.36,WNW,301,3.0,6.0,81,0.00,,,0.00,,2013-03-20 10:32:00,
2013-03-20 05:42:00,-3.0,-7.0,30.36,WNW,301,3.0,6.0,81,0.00,,,0.00,,2013-03-20 10:42:00,
2013-03-20 05:52:00,-4.0,-8.0,30.36,WNW,300,3.0,5.0,81,0.00,,,0.00,,2013-03-20 10:52:00,
2013-03-20 06:03:00,-3.0,-7.0,30.36,WNW,296,2.0,7.0,81,0.00,,,0.00,,2013-03-20 11:03:00,
2013-03-20 06:12:00,-3.0,-7.0,30.36,WNW,296,2.0,7.0,81,0.00,,,0.00,,2013-03-20 11:12:00,
2013-03-20 06:22:00,-3.0,-7.0,30.37,WNW,290,4.0,6.0,82,0.00,,,0.00,,2013-03-20 11:22:00,
2013-03-20 06:32:00,-3.0,-8.0,30.37,WNW,298,3.0,6.0,80,0.00,,,0.00,,2013-03-20 11:32:00,
2013-03-20 06:42:00,-3.0,-8.0,30.37,WNW,298,3.0,6.0,80,0.00,,,0.00,,2013-03-20 11:42:00,
2013-03-20 06:52:00,-3.0,-8.0,30.37,West,274,3.0,6.0,80,0.00,,,0.00,,2013-03-20 11:52:00,
2013-03-20 07:02:00,-3.0,-7.0,30.37,WNW,284,2.0,5.0,81,0.00,,,0.00,,2013-03-20 12:02:00,
2013-03-20 07:12:00,-3.0,-7.0,30.37,WNW,284,2.0,5.0,81,0.00,,,0.00,,2013-03-20 12:12:00,
2013-03-20 07:22:00,-4.0,-8.0,30.37,WNW,295,4.0,6.0,81,0.00,,,0.00,,2013-03-20 12:22:00,
2013-03-20 07:32:00,-3.0,-7.0,30.37,WNW,290,4.0,7.0,82,0.00,,,0.00,,2013-03-20 12:32:00,
2013-03-20 07:42:00,-3.0,-7.0,30.37,WNW,290,4.0,7.0,82,0.00,,,0.00,,2013-03-20 12:42:00,
2013-03-20 07:52:00,-4.0,-8.0,30.37,NW,323,2.0,6.0,82,0.00,,,0.00,,2013-03-20 12:52:00,
2013-03-20 08:03:00,-2.0,-7.0,30.37,WNW,290,3.0,9.0,80,0.00,,,0.00,,2013-03-20 13:03:00,
2013-03-20 08:12:00,-2.0,-7.0,30.37,WNW,290,3.0,9.0,80,0.00,,,0.00,,2013-03-20 13:12:00,
2013-03-20 08:22:00,-2.0,-7.0,30.37,WNW,290,3.0,9.0,80,0.00,,,0.00,,2013-03-20 13:22:00,
2013-03-20 08:32:00,-2.0,-7.0,30.37,WNW,303,3.0,8.0,79,0.00,,,0.00,,2013-03-20 13:32:00,
2013-03-20 08:42:00,-2.0,-7.0,30.37,WNW,303,3.0,8.0,79,0.00,,,0.00,,2013-03-20 13:42:00,
2013-03-20 08:53:00,-1.0,-6.0,30.37,WNW,301,4.0,8.0,78,0.00,,,0.00,,2013-03-20 13:53:00,
2013-03-20 09:03:00,0.0,-5.0,30.38,NW,315,6.0,11.0,78,0.00,,,0.00,,2013-03-20 14:03:00,
2013-03-20 09:12:00,0.0,-5.0,30.38,NW,315,6.0,11.0,78,0.00,,,0.00,,2013-03-20 14:12:00,
2013-03-20 09:23:00,0.0,-5.0,30.38,NW,311,4.0,8.0,78,0.00,,,0.00,,2013-03-20 14:23:00,
2013-03-20 09:33:00,0.0,-5.0,30.37,NW,319,5.0,10.0,77,0.00,,,0.00,,2013-03-20 14:33:00,
2013-03-20 09:42:00,0.0,-5.0,30.37,NW,319,5.0,10.0,77,0.00,,,0.00,,2013-03-20 14:42:00,
2013-03-20 09:52:00,1.0,-5.0,30.37,NNW,328,4.0,9.0,76,0.00,,,0.00,,2013-03-20 14:52:00,
2013-03-20 10:02:00,2.0,-4.0,30.37,NW,313,4.0,8.0,76,0.00,,,0.00,,2013-03-20 15:02:00,
2013-03-20 10:12:00,3.0,-3.0,30.36,NNW,328,5.0,9.0,75,0.00,,,0.00,,2013-03-20 15:12:00,
2013-03-20 10:22:00,3.0,-3.0,30.36,NNW,328,5.0,9.0,75,0.00,,,0.00,,2013-03-20 15:22:00,
2013-03-20 10:33:00,5.0,-2.0,30.36,NW,310,5.0,10.0,73,0.00,,,0.00,,2013-03-20 15:33:00,
2013-03-20 10:43:00,5.0,-2.0,30.36,NW,310,5.0,10.0,73,0.00,,,0.00,,2013-03-20 15:43:00,
2013-03-20 10:52:00,6.0,-1.0,30.36,NW,316,4.0,11.0,71,0.00,,,0.00,,2013-03-20 15:52:00,
2013-03-20 11:03:00,8.0,0.0,30.36,NNE,21,4.0,10.0,70,0.00,,,0.00,,2013-03-20 16:03:00,
2013-03-20 11:12:00,8.0,0.0,30.36,NNE,21,4.0,10.0,70,0.00,,,0.00,,2013-03-20 16:12:00,
2013-03-20 11:23:00,9.0,1.0,30.36,WNW,301,5.0,13.0,68,0.00,,,0.00,,2013-03-20 16:23:00,
2013-03-20 11:33:00,9.0,1.0,30.36,North,1,6.0,13.0,68,0.00,,,0.00,,2013-03-20 16:33:00,
2013-03-20 11:42:00,9.0,1.0,30.36,North,1,6.0,13.0,68,0.00,,,0.00,,2013-03-20 16:42:00,
2013-03-20 11:52:00,10.0,2.0,30.35,NNW,335,5.0,14.0,68,0.00,,,0.00,,2013-03-20 16:52:00,
2013-03-20 12:03:00,10.0,2.0,30.35,NW,315,5.0,13.0,68,0.00,,,0.00,,2013-03-20 17:03:00,
2013-03-20 12:12:00,10.0,2.0,30.35,NW,315,5.0,13.0,68,0.00,,,0.00,,2013-03-20 17:12:00,
2013-03-20 12:22:00,11.0,2.0,30.35,North,351,5.0,14.0,67,0.00,,,0.00,,2013-03-20 17:22:00,
2013-03-20 12:32:00,12.0,3.0,30.35,NNW,331,6.0,14.0,66,0.00,,,0.00,,2013-03-20 17:32:00,
2013-03-20 12:42:00,12.0,3.0,30.35,NNW,331,6.0,14.0,66,0.00,,,0.00,,2013-03-20 17:42:00,
2013-03-20 12:52:00,12.0,3.0,30.34,NNW,340,6.0,13.0,65,0.00,,,0.00,,2013-03-20 17:52:00,
2013-03-20 13:02:00,12.0,3.0,30.33,NNW,329,7.0,13.0,66,0.00,,,0.00,,2013-03-20 18:02:00,
2013-03-20 13:12:00,12.0,3.0,30.33,NNW,329,7.0,13.0,66,0.00,,,0.00,,2013-03-20 18:12:00,
2013-03-20 13:22:00,13.0,3.0,30.33,NW,308,7.0,12.0,65,0.00,,,0.00,,2013-03-20 18:22:00,
2013-03-20 13:33:00,13.0,3.0,30.32,NW,321,5.0,14.0,65,0.00,,,0.00,,2013-03-20 18:33:00,
2013-03-20 13:42:00,13.0,3.0,30.32,NW,321,5.0,14.0,65,0.00,,,0.00,,2013-03-20 18:42:00,
2013-03-20 13:52:00,14.0,4.0,30.32,NW,308,8.0,13.0,64,0.00,,,0.00,,2013-03-20 18:52:00,
2013-03-20 14:02:00,14.0,4.0,30.32,NW,322,6.0,14.0,65,0.00,,,0.00,,2013-03-20 19:02:00,
2013-03-20 14:12:00,14.0,4.0,30.32,NW,322,6.0,14.0,65,0.00,,,0.00,,2013-03-20 19:12:00,
2013-03-20 14:22:00,15.0,5.0,30.31,North,353,4.0,12.0,64,0.00,,,0.00,,2013-03-20 19:22:00,
2013-03-20 14:32:00,15.0,5.0,30.31,NW,321,7.0,14.0,63,0.00,,,0.00,,2013-03-20 19:32:00,
2013-03-20 14:42:00,15.0,5.0,30.31,NW,321,7.0,14.0,63,0.00,,,0.00,,2013-03-20 19:42:00,
2013-03-20 14:53:00,15.0,5.0,30.30,WNW,300,4.0,12.0,64,0.00,,,0.00,,2013-03-20 19:53:00,
2013-03-20 15:02:00,15.0,4.0,30.30,NNW,329,6.0,14.0,62,0.00,,,0.00,,2013-03-20 20:02:00,
2013-03-20 15:13:00,15.0,4.0,30.30,NNW,329,6.0,14.0,62,0.00,,,0.00,,2013-03-20 20:13:00,
2013-03-20 15:22:00,16.0,5.0,30.29,NNW,337,5.0,11.0,61,0.00,,,0.00,,2013-03-20 20:22:00,
2013-03-20 15:32:00,16.0,5.0,30.29,NNW,340,5.0,12.0,61,0.00,,,0.00,,2013-03-20 20:32:00,
2013-03-20 15:42:00,16.0,5.0,30.29,NNW,340,5.0,12.0,61,0.00,,,0.00,,2013-03-20 20:42:00,
2013-03-20 15:53:00,16.0,5.0,30.29,NW,323,6.0,11.0,60,0.00,,,0.00,,2013-03-20 20:53:00,
2013-03-20 16:02:00,16.0,5.0,30.29,NNW,327,5.0,12.0,60,0.00,,,0.00,,2013-03-20 21:02:00,
2013-03-20 16:12:00,16.0,5.0,30.29,NNW,327,5.0,12.0,60,0.00,,,0.00,,2013-03-20 21:12:00,
2013-03-20 16:22:00,16.0,4.0,30.29,NW,316,5.0,13.0,59,0.00,,,0.00,,2013-03-20 21:22:00,
2013-03-20 16:33:00,16.0,4.0,30.29,NW,316,5.0,13.0,59,0.00,,,0.00,,2013-03-20 21:33:00,
2013-03-20 16:42:00,16.0,4.0,30.29,NW,316,5.0,13.0,59,0.00,,,0.00,,2013-03-20 21:42:00,
2013-03-20 16:53:00,16.0,4.0,30.27,North,356,6.0,14.0,59,0.00,,,0.00,,2013-03-20 21:53:00,
2013-03-20 17:03:00,16.0,3.0,30.27,North,352,6.0,12.0,57,0.00,,,0.00,,2013-03-20 22:03:00,
2013-03-20 17:12:00,16.0,3.0,30.27,North,352,6.0,12.0,57,0.00,,,0.00,,2013-03-20 22:12:00,
2013-03-20 17:23:00,16.0,4.0,30.27,NNW,341,6.0,12.0,58,0.00,,,0.00,,2013-03-20 22:23:00,
2013-03-20 17:32:00,16.0,4.0,30.27,NNW,341,6.0,13.0,58,0.00,,,0.00,,2013-03-20 22:32:00,
2013-03-20 17:42:00,16.0,4.0,30.27,NNW,341,6.0,13.0,58,0.00,,,0.00,,2013-03-20 22:42:00,
2013-03-20 17:52:00,16.0,3.0,30.27,NNW,347,7.0,13.0,57,0.00,,,0.00,,2013-03-20 22:52:00,
2013-03-20 18:02:00,16.0,4.0,30.26,NNE,17,5.0,11.0,59,0.00,,,0.00,,2013-03-20 23:02:00,
2013-03-20 18:12:00,16.0,4.0,30.26,NNE,17,5.0,11.0,59,0.00,,,0.00,,2013-03-20 23:12:00,
2013-03-20 18:22:00,15.0,3.0,30.26,NNW,332,6.0,10.0,59,0.00,,,0.00,,2013-03-20 23:22:00,
2013-03-20 18:32:00,15.0,4.0,30.26,NW,316,3.0,8.0,60,0.00,,,0.00,,2013-03-20 23:32:00,
2013-03-20 18:42:00,15.0,4.0,30.26,NW,316,3.0,8.0,60,0.00,,,0.00,,2013-03-20 23:42:00,
2013-03-20 18:53:00,15.0,4.0,30.25,NW,315,3.0,8.0,61,0.00,,,0.00,,2013-03-20 23:53:00,
2013-03-20 19:02:00,14.0,3.0,30.25,NW,314,1.0,7.0,62,0.00,,,0.00,,2013-03-21 00:02:00,
2013-03-20 19:12:00,14.0,3.0,30.25,NW,314,1.0,7.0,62,0.00,,,0.00,,2013-03-21 00:12:00,
2013-03-20 19:23:00,14.0,4.0,30.24,NNW,341,1.0,5.0,63,0.00,,,0.00,,2013-03-21 00:23:00,
2013-03-20 19:32:00,12.0,2.0,30.25,NW,316,1.0,5.0,63,0.00,,,0.00,,2013-03-21 00:32:00,
2013-03-20 19:42:00,12.0,2.0,30.25,NW,316,1.0,5.0,63,0.00,,,0.00,,2013-03-21 00:42:00,
2013-03-20 19:52:00,11.0,2.0,30.25,NW,325,1.0,4.0,66,0.00,,,0.00,,2013-03-21 00:52:00,
2013-03-20 20:02:00,9.0,1.0,30.25,NNW,333,1.0,4.0,69,0.00,,,0.00,,2013-03-21 01:02:00,
2013-03-20 20:12:00,9.0,1.0,30.25,NNW,333,1.0,4.0,69,0.00,,,0.00,,2013-03-21 01:12:00,
2013-03-20 20:22:00,8.0,1.0,30.25,NNW,330,1.0,2.0,71,0.00,,,0.00,,2013-03-21 01:22:00,
2013-03-20 20:32:00,7.0,0.0,30.25,North,4,0.0,3.0,71,0.00,,,0.00,,2013-03-21 01:32:00,
2013-03-20 20:42:00,7.0,0.0,30.25,North,4,0.0,3.0,71,0.00,,,0.00,,2013-03-21 01:42:00,
2013-03-20 20:53:00,5.0,-2.0,30.25,North,350,1.0,5.0,73,0.00,,,0.00,,2013-03-21 01:53:00,
2013-03-20 21:02:00,5.0,-1.0,30.24,NW,308,1.0,4.0,74,0.00,,,0.00,,2013-03-21 02:02:00,
2013-03-20 21:12:00,5.0,-1.0,30.24,NW,308,1.0,4.0,74,0.00,,,0.00,,2013-03-21 02:12:00,
2013-03-20 21:22:00,6.0,-1.0,30.25,NNE,17,0.0,4.0,72,0.00,,,0.00,,2013-03-21 02:22:00,
2013-03-20 21:32:00,6.0,-1.0,30.25,WNW,302,1.0,4.0,71,0.00,,,0.00,,2013-03-21 02:32:00,
2013-03-20 21:42:00,6.0,-1.0,30.25,WNW,302,1.0,4.0,71,0.00,,,0.00,,2013-03-21 02:42:00,
2013-03-20 21:52:00,6.0,-1.0,30.25,WNW,302,1.0,4.0,71,0.00,,,0.00,,2013-03-21 02:52:00,
2013-03-20 22:02:00,4.0,-3.0,30.25,WNW,292,1.0,3.0,72,0.00,,,0.00,,2013-03-21 03:02:00,
2013-03-20 22:12:00,4.0,-3.0,30.25,WNW,292,1.0,3.0,72,0.00,,,0.00,,2013-03-21 03:12:00,
2013-03-20 22:22:00,3.0,-3.0,30.24,WNW,288,0.0,3.0,74,0.00,,,0.00,,2013-03-21 03:22:00,
2013-03-20 22:33:00,2.0,-4.0,30.24,WNW,290,0.0,2.0,76,0.00,,,0.00,,2013-03-21 03:33:00,
2013-03-20 22:43:00,2.0,-4.0,30.24,WNW,290,0.0,2.0,76,0.00,,,0.00,,2013-03-21 03:43:00,
2013-03-20 22:53:00,3.0,-3.0,30.24,NW,319,0.0,1.0,76,0.00,,,0.00,,2013-03-21 03:53:00,
2013-03-20 23:03:00,2.0,-4.0,30.24,West,278,0.0,1.0,76,0.00,,,0.00,,2013-03-21 04:03:00,
2013-03-20 23:13:00,2.0,-4.0,30.24,West,278,0.0,1.0,76,0.00,,,0.00,,2013-03-21 04:13:00,
2013-03-20 23:23:00,1.0,-5.0,30.23,WNW,297,2.0,3.0,76,0.00,,,0.00,,2013-03-21 04:23:00,
2013-03-20 23:33:00,1.0,-4.0,30.24,NW,307,2.0,5.0,77,0.00,,,0.00,,2013-03-21 04:33:00,
2013-03-20 23:43:00,1.0,-4.0,30.24,NW,307,2.0,5.0,77,0.00,,,0.00,,2013-03-21 04:43:00,
2013-03-20 23:53:00,0.0,-5.0,30.23,WNW,285,0.0,2.0,78,0.00,,,0.00,,2013-03-21 04:53:00,